Time,TemperatureF,DewpointF,PressureIn,WindDirection,WindDirectionDegrees,WindSpeedMPH,WindSpeedGustMPH,Humidity,HourlyPrecipIn,Conditions,Clouds,dailyrainin,SoftwareType,DateUTC
2013-01-19 00:02:00,42.4,20.9,30.03,SSE,160,9.6,9.6,42,0.00,,,0.00,WeatherDisplay:10.36,2013-01-19 06:02:00,
2013-01-19 00:07:00,42.3,20.8,30.03,East,84,8.1,8.1,42,0.00,,,0.00,WeatherDisplay:10.36,2013-01-19 06:07:00,
2013-01-19 00:12:00,42.3,20.8,30.03,SSE,149,8.1,8.1,42,0.00,,,0.00,WeatherDisplay:10.36,2013-01-19 06:12:00,
2013-01-19 00:17:00,42.1,20.6,30.00,NE,48,9.2,9.2,42,0.00,,,0.00,WeatherDisplay:10.36,2013-01-19 06:17:00,
2013-01-19 00:22:00,42.1,20.6,30.00,NE,54,10.5,10.5,42,0.00,,,0.00,WeatherDisplay:10.36,2013-01-19 06:22:00,
2013-01-19 00:28:00,42.1,20.6,30.00,NE,47,6.9,6.9,42,0.00,,,0.00,WeatherDisplay:10.36,2013-01-19 06:28:00,
2013-01-19 00:33:00,41.9,20.4,30.00,NE,50,7.4,7.4,42,0.00,,,0.00,WeatherDisplay:10.36,2013-01-19 06:33:00,
2013-01-19 00:38:00,41.7,20.8,30.00,SE,132,6.9,6.9,43,0.00,,,0.00,WeatherDisplay:10.36,2013-01-19 06:38:00,
2013-01-19 00:43:00,41.7,20.8,30.00,NE,47,4.9,5.8,43,0.00,,,0.00,WeatherDisplay:10.36,2013-01-19 06:43:00,
2013-01-19 00:48:00,41.7,20.8,30.03,ENE,60,10.1,10.1,43,0.00,,,0.00,WeatherDisplay:10.36,2013-01-19 06:48:00,
2013-01-19 00:53:00,41.5,20.7,30.03,NE,47,7.8,7.8,43,0.00,,,0.00,WeatherDisplay:10.36,2013-01-19 06:53:00,
2013-01-19 00:58:00,41.5,20.7,30.03,ESE,108,10.5,10.5,43,0.00,,,0.00,WeatherDisplay:10.36,2013-01-19 06:58:00,
2013-01-19 01:03:00,41.5,20.7,30.00,NE,47,4.9,6.9,43,0.00,,,0.00,WeatherDisplay:10.36,2013-01-19 07:03:00,
2013-01-19 01:08:00,41.4,21.1,30.00,East,99,8.1,8.1,44,0.00,,,0.00,WeatherDisplay:10.36,2013-01-19 07:08:00,
2013-01-19 01:13:00,41.4,21.1,30.00,West,266,8.7,8.7,44,0.00,,,0.00,WeatherDisplay:10.36,2013-01-19 07:13:00,
2013-01-19 01:18:00,41.4,21.1,30.00,East,92,9.2,9.2,44,0.00,,,0.00,WeatherDisplay:10.36,2013-01-19 07:18:00,
2013-01-19 01:23:00,41.2,20.9,30.00,WSW,254,7.8,7.8,44,0.00,,,0.00,WeatherDisplay:10.36,2013-01-19 07:23:00,
2013-01-19 01:29:00,41.2,20.9,30.00,ENE,69,8.7,8.7,44,0.00,,,0.00,WeatherDisplay:10.36,2013-01-19 07:29:00,
2013-01-19 01:35:00,41.2,20.9,30.00,SSW,208,9.6,9.6,44,0.00,,,0.00,WeatherDisplay:10.36,2013-01-19 07:35:00,
2013-01-19 01:40:00,41.2,20.9,30.00,East,97,9.2,9.2,44,0.00,,,0.00,WeatherDisplay:10.36,2013-01-19 07:40:00,
2013-01-19 01:45:00,41.2,20.9,30.00,NE,56,9.2,9.2,44,0.00,,,0.00,WeatherDisplay:10.36,2013-01-19 07:45:00,
2013-01-19 01:50:00,41.2,20.9,30.00,NE,51,12.1,12.1,44,0.00,,,0.00,WeatherDisplay:10.36,2013-01-19 07:50:00,
2013-01-19 01:55:00,41.0,20.7,30.00,NE,48,10.1,10.1,44,0.00,,,0.00,WeatherDisplay:10.36,2013-01-19 07:55:00,
2013-01-19 02:00:00,41.0,20.7,30.00,SSW,206,9.2,9.2,44,0.00,,,0.00,WeatherDisplay:10.36,2013-01-19 08:00:00,
2013-01-19 02:05:00,41.0,20.7,30.00,South,177,9.2,9.2,44,0.00,,,0.00,WeatherDisplay:10.36,2013-01-19 08:05:00,
2013-01-19 02:10:00,41.0,20.7,30.00,NE,48,9.2,9.2,44,0.00,,,0.00,WeatherDisplay:10.36,2013-01-19 08:10:00,
2013-01-19 02:15:00,40.8,20.6,30.00,South,177,9.6,9.6,44,0.00,,,0.00,WeatherDisplay:10.36,2013-01-19 08:15:00,
2013-01-19 02:20:00,40.8,20.6,30.00,SE,126,9.2,9.2,44,0.00,,,0.00,WeatherDisplay:10.36,2013-01-19 08:20:00,
2013-01-19 02:25:00,40.8,21.1,30.00,South,187,9.2,9.2,45,0.00,,,0.00,WeatherDisplay:10.36,2013-01-19 08:25:00,
2013-01-19 02:30:00,40.6,20.9,30.00,East,88,8.1,8.1,45,0.00,,,0.00,WeatherDisplay:10.36,2013-01-19 08:30:00,
2013-01-19 02:35:00,40.6,20.9,30.00,WSW,253,10.4,10.4,45,0.00,,,0.00,WeatherDisplay:10.36,2013-01-19 08:35:00,
2013-01-19 02:40:00,40.5,20.8,30.00,NE,50,12.1,12.1,45,0.00,,,0.00,WeatherDisplay:10.36,2013-01-19 08:40:00,
2013-01-19 02:45:00,40.5,20.8,30.00,NE,47,7.4,7.4,45,0.00,,,0.00,WeatherDisplay:10.36,2013-01-19 08:45:00,
2013-01-19 02:50:00,40.5,20.8,30.00,NE,47,11.6,11.6,45,0.00,,,0.00,WeatherDisplay:10.36,2013-01-19 08:50:00,
2013-01-19 02:55:00,40.3,21.1,30.00,NE,45,9.2,9.2,46,0.00,,,0.00,WeatherDisplay:10.36,2013-01-19 08:55:00,
2013-01-19 03:00:00,40.3,21.1,30.00,SE,124,12.1,12.1,46,0.00,,,0.00,WeatherDisplay:10.36,2013-01-19 09:00:00,
2013-01-19 03:05:00,40.3,21.1,30.00,NE,49,13.0,13.0,46,0.00,,,0.00,WeatherDisplay:10.36,2013-01-19 09:05:00,
2013-01-19 03:10:00,40.5,21.3,30.00,NE,47,11.5,11.5,46,0.00,,,0.00,WeatherDisplay:10.36,2013-01-19 09:10:00,
2013-01-19 03:15:00,40.3,21.1,30.00,NE,50,10.9,10.9,46,0.00,,,0.00,WeatherDisplay:10.36,2013-01-19 09:15:00,
2013-01-19 03:20:00,40.3,21.6,30.00,East,89,12.5,12.5,47,0.00,,,0.00,WeatherDisplay:10.36,2013-01-19 09:20:00,
2013-01-19 03:25:00,40.3,21.6,30.00,NE,48,11.5,11.5,47,0.00,,,0.00,WeatherDisplay:10.36,2013-01-19 09:25:00,
2013-01-19 03:30:00,40.3,21.6,30.00,ENE,59,10.1,10.1,47,0.00,,,0.00,WeatherDisplay:10.36,2013-01-19 09:30:00,
2013-01-19 03:35:00,40.1,22.0,30.00,SW,217,9.2,9.2,48,0.00,,,0.00,WeatherDisplay:10.36,2013-01-19 09:35:00,
2013-01-19 03:40:00,40.1,22.0,30.00,NE,49,10.4,10.4,48,0.00,,,0.00,WeatherDisplay:10.36,2013-01-19 09:40:00,
2013-01-19 03:45:00,40.1,22.0,30.00,NE,48,9.2,9.2,48,0.00,,,0.00,WeatherDisplay:10.36,2013-01-19 09:45:00,
2013-01-19 03:50:00,39.9,22.3,29.97,NE,47,9.2,9.2,49,0.00,,,0.00,WeatherDisplay:10.36,2013-01-19 09:50:00,
2013-01-19 03:55:00,39.9,22.3,29.97,South,189,8.3,8.3,49,0.00,,,0.00,WeatherDisplay:10.36,2013-01-19 09:55:00,
2013-01-19 04:00:00,39.7,22.1,29.97,NE,46,10.4,10.4,49,0.00,,,0.00,WeatherDisplay:10.36,2013-01-19 10:00:00,
2013-01-19 04:05:00,39.7,22.1,29.97,West,263,6.9,6.9,49,0.00,,,0.00,WeatherDisplay:10.36,2013-01-19 10:05:00,
2013-01-19 04:10:00,39.7,22.1,29.97,NE,48,10.5,10.5,49,0.00,,,0.00,WeatherDisplay:10.36,2013-01-19 10:10:00,
2013-01-19 04:15:00,39.6,22.0,29.97,NE,48,6.7,6.7,49,0.00,,,0.00,WeatherDisplay:10.36,2013-01-19 10:15:00,
2013-01-19 04:20:00,39.6,22.4,29.97,ENE,71,9.2,9.2,50,0.00,,,0.00,WeatherDisplay:10.36,2013-01-19 10:20:00,
2013-01-19 04:25:00,39.4,22.3,29.97,NE,45,10.4,10.4,50,0.00,,,0.00,WeatherDisplay:10.36,2013-01-19 10:25:00,
2013-01-19 04:30:00,39.4,22.3,29.97,ENE,68,10.4,10.4,50,0.00,,,0.00,WeatherDisplay:10.36,2013-01-19 10:30:00,
2013-01-19 04:35:00,39.4,22.3,29.97,SW,234,11.5,11.5,50,0.00,,,0.00,WeatherDisplay:10.36,2013-01-19 10:35:00,
2013-01-19 04:40:00,39.4,22.7,29.97,West,262,9.6,9.6,51,0.00,,,0.00,WeatherDisplay:10.36,2013-01-19 10:40:00,
2013-01-19 04:45:00,39.4,22.7,29.97,WSW,253,7.8,7.8,51,0.00,,,0.00,WeatherDisplay:10.36,2013-01-19 10:45:00,
2013-01-19 04:50:00,39.4,22.7,29.97,ENE,61,9.2,9.2,51,0.00,,,0.00,WeatherDisplay:10.36,2013-01-19 10:50:00,
2013-01-19 04:55:00,39.4,22.7,29.97,ENE,67,6.3,6.3,51,0.00,,,0.00,WeatherDisplay:10.36,2013-01-19 10:55:00,
2013-01-19 05:00:00,39.2,22.6,29.97,NE,55,8.7,8.7,51,0.00,,,0.00,WeatherDisplay:10.36,2013-01-19 11:00:00,
2013-01-19 05:05:00,39.2,22.6,29.97,NE,47,9.2,9.2,51,0.00,,,0.00,WeatherDisplay:10.36,2013-01-19 11:05:00,
2013-01-19 05:10:00,39.2,23.0,29.97,NE,44,11.5,11.5,52,0.00,,,0.00,WeatherDisplay:10.36,2013-01-19 11:10:00,
2013-01-19 06:48:00,38.7,23.9,29.94,NE,46,8.3,8.3,55,0.00,,,0.00,WeatherDisplay:10.36,2013-01-19 12:48:00,
2013-01-19 06:49:00,38.7,23.9,29.94,NE,49,5.4,5.4,55,0.00,,,0.00,WeatherDisplay:10.36,2013-01-19 12:49:00,
2013-01-19 06:50:00,38.7,23.9,29.94,West,264,9.2,9.2,55,0.00,,,0.00,WeatherDisplay:10.36,2013-01-19 12:50:00,
2013-01-19 06:51:00,38.7,23.9,29.94,West,266,6.9,6.9,55,0.00,,,0.00,WeatherDisplay:10.36,2013-01-19 12:51:00,
2013-01-19 06:56:00,38.5,23.7,29.94,NE,45,9.2,9.2,55,0.00,,,0.00,WeatherDisplay:10.36,2013-01-19 12:56:00,
2013-01-19 07:01:00,38.5,24.1,29.94,NE,47,10.5,10.5,56,0.00,,,0.00,WeatherDisplay:10.36,2013-01-19 13:01:00,
2013-01-19 07:07:00,38.5,24.1,29.94,SSE,154,8.1,8.1,56,0.00,,,0.00,WeatherDisplay:10.36,2013-01-19 13:07:00,
2013-01-19 07:12:00,38.5,24.1,29.94,NE,55,8.1,8.1,56,0.00,,,0.00,WeatherDisplay:10.36,2013-01-19 13:12:00,
2013-01-19 07:17:00,38.5,24.6,29.94,NE,47,6.9,6.9,57,0.00,,,0.00,WeatherDisplay:10.36,2013-01-19 13:17:00,
2013-01-19 07:22:00,38.5,24.1,29.94,NE,51,6.3,6.3,56,0.00,,,0.00,WeatherDisplay:10.36,2013-01-19 13:22:00,
2013-01-19 07:27:00,38.5,24.6,29.94,NE,46,7.4,7.4,57,0.00,,,0.00,WeatherDisplay:10.36,2013-01-19 13:27:00,
2013-01-19 07:33:00,38.5,24.6,29.94,NE,48,11.5,11.5,57,0.00,,,0.00,WeatherDisplay:10.36,2013-01-19 13:33:00,
2013-01-19 07:39:00,38.5,24.6,29.94,NE,48,8.3,8.3,57,0.00,,,0.00,WeatherDisplay:10.36,2013-01-19 13:39:00,
2013-01-19 07:44:00,38.7,25.1,29.94,ESE,105,6.9,6.9,58,0.00,,,0.00,WeatherDisplay:10.36,2013-01-19 13:44:00,
2013-01-19 07:49:00,38.7,25.1,29.94,NE,47,5.4,5.4,58,0.00,,,0.00,WeatherDisplay:10.36,2013-01-19 13:49:00,
2013-01-19 07:54:00,38.7,25.1,29.94,South,175,6.7,6.7,58,0.00,,,0.00,WeatherDisplay:10.36,2013-01-19 13:54:00,
2013-01-19 07:59:00,38.8,25.3,29.94,East,80,6.3,6.3,58,0.00,,,0.00,WeatherDisplay:10.36,2013-01-19 13:59:00,
2013-01-19 08:04:00,39.0,25.5,29.94,NE,47,8.1,8.1,58,0.00,,,0.00,WeatherDisplay:10.36,2013-01-19 14:04:00,
2013-01-19 08:09:00,39.2,25.6,29.94,NE,46,5.8,5.8,58,0.00,,,0.00,WeatherDisplay:10.36,2013-01-19 14:09:00,
2013-01-19 08:14:00,39.4,25.8,29.94,ENE,57,6.9,6.9,58,0.00,,,0.00,WeatherDisplay:10.36,2013-01-19 14:14:00,
2013-01-19 08:19:00,39.7,26.2,29.94,West,262,5.8,5.8,58,0.00,,,0.00,WeatherDisplay:10.36,2013-01-19 14:19:00,
2013-01-19 08:25:00,40.1,26.1,29.94,East,93,9.2,9.2,57,0.00,,,0.00,WeatherDisplay:10.36,2013-01-19 14:25:00,
2013-01-19 08:30:00,40.5,26.4,29.94,NE,46,5.8,5.8,57,0.00,,,0.00,WeatherDisplay:10.36,2013-01-19 14:30:00,
2013-01-19 08:36:00,41.2,26.7,29.94,NE,47,6.3,6.3,56,0.00,,,0.00,WeatherDisplay:10.36,2013-01-19 14:36:00,
2013-01-19 08:41:00,41.5,26.6,29.94,SE,143,11.5,11.5,55,0.00,,,0.00,WeatherDisplay:10.36,2013-01-19 14:41:00,
2013-01-19 08:46:00,42.1,26.6,29.94,NE,46,11.5,11.5,54,0.00,,,0.00,WeatherDisplay:10.36,2013-01-19 14:46:00,
2013-01-19 08:51:00,42.6,26.7,29.94,West,264,9.2,9.2,53,0.00,,,0.00,WeatherDisplay:10.36,2013-01-19 14:51:00,
2013-01-19 08:57:00,43.3,26.9,29.94,ENE,59,9.2,9.2,52,0.00,,,0.00,WeatherDisplay:10.36,2013-01-19 14:57:00,
2013-01-19 09:02:00,43.9,26.9,29.94,NE,48,9.2,9.2,51,0.00,,,0.00,WeatherDisplay:10.36,2013-01-19 15:02:00,
2013-01-19 09:07:00,44.6,27.1,29.94,NE,47,9.2,9.2,50,0.00,,,0.00,WeatherDisplay:10.36,2013-01-19 15:07:00,
2013-01-19 09:13:00,45.1,27.6,29.94,NE,47,7.4,7.4,50,0.00,,,0.00,WeatherDisplay:10.36,2013-01-19 15:13:00,
2013-01-19 09:18:00,45.9,27.8,29.94,ESE,109,6.9,6.9,49,0.00,,,0.00,WeatherDisplay:10.36,2013-01-19 15:18:00,
2013-01-19 09:24:00,46.4,27.8,29.94,NE,47,6.7,6.7,48,0.00,,,0.00,WeatherDisplay:10.36,2013-01-19 15:24:00,
2013-01-19 09:29:00,47.1,27.9,29.94,NE,47,10.9,10.9,47,0.00,,,0.00,WeatherDisplay:10.36,2013-01-19 15:29:00,
2013-01-19 09:34:00,47.7,27.9,29.94,ENE,57,9.6,9.6,46,0.00,,,0.00,WeatherDisplay:10.36,2013-01-19 15:34:00,
2013-01-19 09:39:00,48.0,27.7,29.94,NE,47,10.9,10.9,45,0.00,,,0.00,WeatherDisplay:10.36,2013-01-19 15:39:00,
2013-01-19 09:44:00,48.6,27.1,29.94,NE,49,11.6,11.6,43,0.00,,,0.00,WeatherDisplay:10.36,2013-01-19 15:44:00,
2013-01-19 09:49:00,48.9,26.8,29.94,NE,46,17.3,17.3,42,0.00,,,0.00,WeatherDisplay:10.36,2013-01-19 15:49:00,
2013-01-19 09:55:00,49.3,27.1,29.94,NE,49,15.0,15.0,42,0.00,,,0.00,WeatherDisplay:10.36,2013-01-19 15:55:00,
2013-01-19 10:00:00,49.5,27.3,29.94,ENE,66,12.1,12.1,42,0.00,,,0.00,WeatherDisplay:10.36,2013-01-19 16:00:00,
2013-01-19 10:05:00,49.8,28.2,29.94,NE,44,11.5,11.5,43,0.00,,,0.00,WeatherDisplay:10.36,2013-01-19 16:05:00,
2013-01-19 10:10:00,50.4,28.7,29.94,West,262,10.5,10.5,43,0.00,,,0.00,WeatherDisplay:10.36,2013-01-19 16:10:00,
2013-01-19 10:16:00,50.7,27.8,29.94,WSW,250,13.8,13.8,41,0.00,,,0.00,WeatherDisplay:10.36,2013-01-19 16:16:00,
2013-01-19 10:22:00,51.1,27.6,29.94,NE,42,13.0,13.0,40,0.00,,,0.00,WeatherDisplay:10.36,2013-01-19 16:22:00,
2013-01-19 10:27:00,51.4,27.9,29.94,NE,45,11.5,11.5,40,0.00,,,0.00,WeatherDisplay:10.36,2013-01-19 16:27:00,
2013-01-19 10:32:00,51.8,28.2,29.94,NE,45,12.7,12.7,40,0.00,,,0.00,WeatherDisplay:10.36,2013-01-19 16:32:00,
2013-01-19 10:38:00,52.2,27.9,29.94,East,93,10.1,10.1,39,0.00,,,0.00,WeatherDisplay:10.36,2013-01-19 16:38:00,
2013-01-19 10:43:00,52.3,27.5,29.94,NE,46,10.9,10.9,38,0.00,,,0.00,WeatherDisplay:10.36,2013-01-19 16:43:00,
2013-01-19 10:48:00,52.3,27.5,29.91,NE,45,11.6,11.6,38,0.00,,,0.00,WeatherDisplay:10.36,2013-01-19 16:48:00,
2013-01-19 10:53:00,52.5,27.6,29.91,NE,47,6.7,7.8,38,0.00,,,0.00,WeatherDisplay:10.36,2013-01-19 16:53:00,
2013-01-19 10:58:00,52.7,27.8,29.91,ESE,120,13.8,13.8,38,0.00,,,0.00,WeatherDisplay:10.36,2013-01-19 16:58:00,
2013-01-19 11:03:00,52.9,27.9,29.91,NE,47,11.5,11.5,38,0.00,,,0.00,WeatherDisplay:10.36,2013-01-19 17:03:00,
2013-01-19 11:08:00,53.1,27.4,29.91,WSW,254,12.1,12.1,37,0.00,,,0.00,WeatherDisplay:10.36,2013-01-19 17:08:00,
2013-01-19 11:13:00,53.1,27.4,29.91,NE,44,11.5,11.5,37,0.00,,,0.00,WeatherDisplay:10.36,2013-01-19 17:13:00,
2013-01-19 11:19:00,53.2,27.6,29.91,NE,45,11.5,11.5,37,0.00,,,0.00,WeatherDisplay:10.36,2013-01-19 17:19:00,
2013-01-19 11:24:00,53.4,27.8,29.91,SE,143,16.3,16.3,37,0.00,,,0.00,WeatherDisplay:10.36,2013-01-19 17:24:00,
2013-01-19 11:30:00,53.6,27.9,29.91,NE,46,9.2,9.2,37,0.00,,,0.00,WeatherDisplay:10.36,2013-01-19 17:30:00,
2013-01-19 11:36:00,54.0,28.3,29.91,South,181,10.5,10.5,37,0.00,,,0.00,WeatherDisplay:10.36,2013-01-19 17:36:00,
2013-01-19 11:42:00,54.3,28.6,29.91,NE,46,14.3,14.3,37,0.00,,,0.00,WeatherDisplay:10.36,2013-01-19 17:42:00,
2013-01-19 11:47:00,54.3,27.9,29.88,NE,48,9.6,9.6,36,0.00,,,0.00,WeatherDisplay:10.36,2013-01-19 17:47:00,
2013-01-19 11:53:00,54.5,28.7,29.88,NE,44,12.1,12.1,37,0.00,,,0.00,WeatherDisplay:10.36,2013-01-19 17:53:00,
2013-01-19 11:58:00,54.9,28.4,29.88,ENE,74,6.7,6.7,36,0.00,,,0.00,WeatherDisplay:10.36,2013-01-19 17:58:00,
2013-01-19 12:04:00,55.2,28.7,29.91,NE,47,10.1,10.1,36,0.00,,,0.00,WeatherDisplay:10.36,2013-01-19 18:04:00,
2013-01-19 12:10:00,55.6,29.0,29.91,NE,48,10.5,10.5,36,0.00,,,0.00,WeatherDisplay:10.36,2013-01-19 18:10:00,
2013-01-19 12:15:00,55.9,28.7,29.91,WSW,250,9.2,9.2,35,0.00,,,0.00,WeatherDisplay:10.36,2013-01-19 18:15:00,
2013-01-19 12:20:00,56.3,29.0,29.88,NE,47,9.6,9.6,35,0.00,,,0.00,WeatherDisplay:10.36,2013-01-19 18:20:00,
2013-01-19 12:25:00,56.7,29.3,29.88,WSW,254,11.5,11.5,35,0.00,,,0.00,WeatherDisplay:10.36,2013-01-19 18:25:00,
2013-01-19 12:30:00,56.8,29.4,29.88,NE,46,11.5,11.5,35,0.00,,,0.00,WeatherDisplay:10.36,2013-01-19 18:30:00,
2013-01-19 12:35:00,57.2,29.8,29.88,NE,45,12.7,12.7,35,0.00,,,0.00,WeatherDisplay:10.36,2013-01-19 18:35:00,
2013-01-19 12:40:00,57.6,30.1,29.88,West,262,11.5,11.5,35,0.00,,,0.00,WeatherDisplay:10.36,2013-01-19 18:40:00,
2013-01-19 12:45:00,57.7,29.5,29.88,SSE,148,10.4,10.4,34,0.00,,,0.00,WeatherDisplay:10.36,2013-01-19 18:45:00,
2013-01-19 12:50:00,57.6,28.6,29.88,West,266,12.1,12.1,33,0.00,,,0.00,WeatherDisplay:10.36,2013-01-19 18:50:00,
2013-01-19 12:55:00,57.4,28.5,29.88,East,91,10.9,10.9,33,0.00,,,0.00,WeatherDisplay:10.36,2013-01-19 18:55:00,
2013-01-19 13:01:00,57.2,29.1,29.88,ENE,71,9.2,9.2,34,0.00,,,0.00,WeatherDisplay:10.36,2013-01-19 19:01:00,
2013-01-19 13:07:00,57.0,28.9,29.88,ENE,68,9.2,9.2,34,0.00,,,0.00,WeatherDisplay:10.36,2013-01-19 19:07:00,
2013-01-19 13:12:00,57.2,29.8,29.88,NE,45,6.9,6.9,35,0.00,,,0.00,WeatherDisplay:10.36,2013-01-19 19:12:00,
2013-01-19 13:17:00,57.2,29.8,29.88,NE,45,8.1,8.1,35,0.00,,,0.00,WeatherDisplay:10.36,2013-01-19 19:17:00,
2013-01-19 13:23:00,57.0,29.6,29.88,NE,47,8.3,8.3,35,0.00,,,0.00,WeatherDisplay:10.36,2013-01-19 19:23:00,
2013-01-19 13:29:00,56.5,29.1,29.88,ENE,74,7.4,7.4,35,0.00,,,0.00,WeatherDisplay:10.36,2013-01-19 19:29:00,
2013-01-19 13:34:00,56.1,28.8,29.88,ENE,57,5.4,5.4,35,0.00,,,0.00,WeatherDisplay:10.36,2013-01-19 19:34:00,
2013-01-19 13:39:00,55.9,29.3,29.88,NE,46,10.5,10.5,36,0.00,,,0.00,WeatherDisplay:10.36,2013-01-19 19:39:00,
2013-01-19 13:44:00,56.1,29.5,29.88,West,266,9.6,9.6,36,0.00,,,0.00,WeatherDisplay:10.36,2013-01-19 19:44:00,
2013-01-19 13:49:00,56.5,29.1,29.88,NE,48,10.4,10.4,35,0.00,,,0.00,WeatherDisplay:10.36,2013-01-19 19:49:00,
2013-01-19 13:54:00,56.7,29.3,29.88,NE,46,9.2,9.2,35,0.00,,,0.00,WeatherDisplay:10.36,2013-01-19 19:54:00,
2013-01-19 14:00:00,57.0,29.6,29.88,NE,45,6.9,6.9,35,0.00,,,0.00,WeatherDisplay:10.36,2013-01-19 20:00:00,
2013-01-19 14:05:00,57.2,29.8,29.88,ENE,57,11.5,11.5,35,0.00,,,0.00,WeatherDisplay:10.36,2013-01-19 20:05:00,
2013-01-19 14:11:00,57.4,29.9,29.88,SE,129,9.2,9.2,35,0.00,,,0.00,WeatherDisplay:10.36,2013-01-19 20:11:00,
2013-01-19 14:16:00,57.6,30.1,29.88,NE,44,10.1,10.1,35,0.00,,,0.00,WeatherDisplay:10.36,2013-01-19 20:16:00,
2013-01-19 14:22:00,57.6,28.6,29.88,NE,46,8.3,8.3,33,0.00,,,0.00,WeatherDisplay:10.36,2013-01-19 20:22:00,
2013-01-19 14:28:00,57.6,28.6,29.88,NE,47,13.8,13.8,33,0.00,,,0.00,WeatherDisplay:10.36,2013-01-19 20:28:00,
2013-01-19 14:33:00,57.6,27.9,29.88,NE,45,9.2,9.2,32,0.00,,,0.00,WeatherDisplay:10.36,2013-01-19 20:33:00,
2013-01-19 14:39:00,57.6,28.6,29.88,NE,46,8.7,8.7,33,0.00,,,0.00,WeatherDisplay:10.36,2013-01-19 20:39:00,
2013-01-19 14:44:00,57.6,28.6,29.88,NE,46,6.9,6.9,33,0.00,,,0.00,WeatherDisplay:10.36,2013-01-19 20:44:00,
2013-01-19 14:49:00,57.7,28.8,29.88,West,264,9.2,9.2,33,0.00,,,0.00,WeatherDisplay:10.36,2013-01-19 20:49:00,
2013-01-19 14:55:00,57.6,28.6,29.88,NE,56,9.6,9.6,33,0.00,,,0.00,WeatherDisplay:10.36,2013-01-19 20:55:00,
2013-01-19 15:03:00,57.4,28.5,29.88,SSW,211,9.6,9.6,33,0.00,,,0.00,WeatherDisplay:10.36,2013-01-19 21:03:00,
2013-01-19 15:08:00,57.4,28.5,29.88,West,263,4.5,7.4,33,0.00,,,0.00,WeatherDisplay:10.36,2013-01-19 21:08:00,
2013-01-19 15:14:00,57.2,28.3,29.88,NE,44,7.8,7.8,33,0.00,,,0.00,WeatherDisplay:10.36,2013-01-19 21:14:00,
2013-01-19 15:19:00,57.2,27.6,29.88,NE,45,8.3,8.3,32,0.00,,,0.00,WeatherDisplay:10.36,2013-01-19 21:19:00,
2013-01-19 15:24:00,57.0,28.2,29.88,NE,46,10.1,10.1,33,0.00,,,0.00,WeatherDisplay:10.36,2013-01-19 21:24:00,
2013-01-19 15:29:00,57.0,28.2,29.88,NE,47,9.2,9.2,33,0.00,,,0.00,WeatherDisplay:10.36,2013-01-19 21:29:00,
2013-01-19 15:35:00,56.8,28.0,29.88,NE,49,9.2,9.2,33,0.00,,,0.00,WeatherDisplay:10.36,2013-01-19 21:35:00,
2013-01-19 15:40:00,56.7,27.9,29.88,NE,46,6.9,6.9,33,0.00,,,0.00,WeatherDisplay:10.36,2013-01-19 21:40:00,
2013-01-19 15:46:00,56.7,28.6,29.88,NE,46,7.8,7.8,34,0.00,,,0.00,WeatherDisplay:10.36,2013-01-19 21:46:00,
2013-01-19 15:52:00,56.3,28.3,29.88,SSW,212,8.1,8.1,34,0.00,,,0.00,WeatherDisplay:10.36,2013-01-19 21:52:00,
2013-01-19 15:57:00,56.3,29.0,29.88,NE,46,8.3,8.3,35,0.00,,,0.00,WeatherDisplay:10.36,2013-01-19 21:57:00,
2013-01-19 16:02:00,56.1,28.8,29.88,NE,48,10.4,10.4,35,0.00,,,0.00,WeatherDisplay:10.36,2013-01-19 22:02:00,
2013-01-19 16:08:00,55.9,28.7,29.88,NE,47,0.0,6.7,35,0.00,,,0.00,WeatherDisplay:10.36,2013-01-19 22:08:00,
2013-01-19 16:14:00,55.8,28.5,29.88,NE,50,7.4,7.4,35,0.00,,,0.00,WeatherDisplay:10.36,2013-01-19 22:14:00,
2013-01-19 16:20:00,55.8,28.5,29.88,NE,48,9.6,9.6,35,0.00,,,0.00,WeatherDisplay:10.36,2013-01-19 22:20:00,
2013-01-19 16:25:00,55.6,28.3,29.88,NE,47,7.4,7.4,35,0.00,,,0.00,WeatherDisplay:10.36,2013-01-19 22:25:00,
2013-01-19 16:30:00,55.4,28.2,29.88,NE,47,9.2,9.2,35,0.00,,,0.00,WeatherDisplay:10.36,2013-01-19 22:30:00,
2013-01-19 16:36:00,55.0,27.9,29.88,NE,48,9.2,9.2,35,0.00,,,0.00,WeatherDisplay:10.36,2013-01-19 22:36:00,
2013-01-19 16:42:00,54.9,28.4,29.88,NE,46,8.3,8.3,36,0.00,,,0.00,WeatherDisplay:10.36,2013-01-19 22:42:00,
2013-01-19 16:47:00,54.7,28.2,29.91,SE,131,7.4,7.4,36,0.00,,,0.00,WeatherDisplay:10.36,2013-01-19 22:47:00,
2013-01-19 16:52:00,54.5,28.1,29.91,NE,45,8.1,8.1,36,0.00,,,0.00,WeatherDisplay:10.36,2013-01-19 22:52:00,
2013-01-19 16:57:00,54.1,27.7,29.91,NE,47,9.2,9.2,36,0.00,,,0.00,WeatherDisplay:10.36,2013-01-19 22:57:00,
2013-01-19 17:02:00,54.0,27.6,29.91,NE,55,6.9,6.9,36,0.00,,,0.00,WeatherDisplay:10.36,2013-01-19 23:02:00,
2013-01-19 17:07:00,53.6,27.3,29.91,NE,46,6.3,6.3,36,0.00,,,0.00,WeatherDisplay:10.36,2013-01-19 23:07:00,
2013-01-19 17:13:00,53.4,27.8,29.91,NE,51,6.3,6.3,37,0.00,,,0.00,WeatherDisplay:10.36,2013-01-19 23:13:00,
2013-01-19 17:19:00,53.1,27.4,29.91,NE,49,6.7,6.7,37,0.00,,,0.00,WeatherDisplay:10.36,2013-01-19 23:19:00,
2013-01-19 17:25:00,52.7,27.1,29.91,NE,49,6.9,6.9,37,0.00,,,0.00,WeatherDisplay:10.36,2013-01-19 23:25:00,
2013-01-19 17:31:00,52.5,27.6,29.91,ENE,68,6.3,6.3,38,0.00,,,0.00,WeatherDisplay:10.36,2013-01-19 23:31:00,
2013-01-19 17:37:00,52.2,27.3,29.91,NE,46,6.3,6.3,38,0.00,,,0.00,WeatherDisplay:10.36,2013-01-19 23:37:00,
2013-01-19 17:44:00,51.8,27.0,29.91,NE,46,5.8,5.8,38,0.00,,,0.00,WeatherDisplay:10.36,2013-01-19 23:44:00,
2013-01-19 17:49:00,51.6,26.8,29.94,NE,46,6.3,6.3,38,0.00,,,0.00,WeatherDisplay:10.36,2013-01-19 23:49:00,
2013-01-19 17:54:00,51.3,26.5,29.94,NE,48,6.3,6.3,38,0.00,,,0.00,WeatherDisplay:10.36,2013-01-19 23:54:00,
2013-01-19 18:00:00,51.3,27.1,29.94,NE,48,6.9,6.9,39,0.00,,,0.00,WeatherDisplay:10.36,2013-01-20 00:00:00,
2013-01-19 18:05:00,51.1,27.0,29.94,NE,49,6.3,6.3,39,0.00,,,0.00,WeatherDisplay:10.36,2013-01-20 00:05:00,
2013-01-19 18:11:00,50.9,26.8,29.94,NE,47,6.3,6.3,39,0.00,,,0.00,WeatherDisplay:10.36,2013-01-20 00:11:00,
2013-01-19 18:17:00,50.7,27.2,29.94,WSW,240,8.1,8.1,40,0.00,,,0.00,WeatherDisplay:10.36,2013-01-20 00:17:00,
2013-01-19 18:23:00,50.5,27.1,29.94,NE,48,0.0,4.9,40,0.00,,,0.00,WeatherDisplay:10.36,2013-01-20 00:23:00,
2013-01-19 18:28:00,50.4,26.9,29.94,ESE,115,6.9,6.9,40,0.00,,,0.00,WeatherDisplay:10.36,2013-01-20 00:28:00,
2013-01-19 18:33:00,50.2,26.8,29.97,NE,50,0.0,5.4,40,0.00,,,0.00,WeatherDisplay:10.36,2013-01-20 00:33:00,
2013-01-19 18:39:00,50.0,26.6,29.97,SE,125,6.3,6.3,40,0.00,,,0.00,WeatherDisplay:10.36,2013-01-20 00:39:00,
2013-01-19 18:45:00,49.8,27.0,29.97,NE,50,6.3,6.3,41,0.00,,,0.00,WeatherDisplay:10.36,2013-01-20 00:45:00,
2013-01-19 18:50:00,49.6,26.9,29.97,West,266,5.8,5.8,41,0.00,,,0.00,WeatherDisplay:10.36,2013-01-20 00:50:00,
2013-01-19 18:55:00,49.5,26.7,29.97,NE,49,6.3,6.3,41,0.00,,,0.00,WeatherDisplay:10.36,2013-01-20 00:55:00,
2013-01-19 19:02:00,49.3,26.5,29.97,NE,49,6.9,6.9,41,0.00,,,0.00,WeatherDisplay:10.36,2013-01-20 01:02:00,
2013-01-19 19:07:00,49.1,26.4,29.97,East,80,6.7,6.7,41,0.00,,,0.00,WeatherDisplay:10.36,2013-01-20 01:07:00,
2013-01-19 19:13:00,48.9,26.8,29.97,NE,49,5.8,5.8,42,0.00,,,0.00,WeatherDisplay:10.36,2013-01-20 01:13:00,
2013-01-19 19:18:00,48.7,26.6,30.00,ENE,71,6.9,6.9,42,0.00,,,0.00,WeatherDisplay:10.36,2013-01-20 01:18:00,
2013-01-19 19:24:00,48.6,26.5,30.00,ESE,105,4.5,4.5,42,0.00,,,0.00,WeatherDisplay:10.36,2013-01-20 01:24:00,
2013-01-19 19:29:00,48.4,26.3,30.00,NE,47,4.5,4.5,42,0.00,,,0.00,WeatherDisplay:10.36,2013-01-20 01:29:00,
2013-01-19 19:34:00,48.2,26.7,30.00,NE,48,3.6,4.0,43,0.00,,,0.00,WeatherDisplay:10.36,2013-01-20 01:34:00,
2013-01-19 19:39:00,47.8,26.4,30.00,NE,48,4.0,4.5,43,0.00,,,0.00,WeatherDisplay:10.36,2013-01-20 01:39:00,
2013-01-19 19:45:00,47.7,26.2,30.00,ESE,103,4.9,4.9,43,0.00,,,0.00,WeatherDisplay:10.36,2013-01-20 01:45:00,
2013-01-19 19:50:00,47.5,26.1,30.00,NE,49,4.9,4.9,43,0.00,,,0.00,WeatherDisplay:10.36,2013-01-20 01:50:00,
2013-01-19 19:56:00,47.3,25.9,30.00,NE,46,4.9,4.9,43,0.00,,,0.00,WeatherDisplay:10.36,2013-01-20 01:56:00,
2013-01-19 20:03:00,47.1,25.7,30.00,NE,53,5.8,5.8,43,0.00,,,0.00,WeatherDisplay:10.36,2013-01-20 02:03:00,
2013-01-19 20:08:00,47.1,25.2,30.00,West,267,4.0,4.0,42,0.00,,,0.00,WeatherDisplay:10.36,2013-01-20 02:08:00,
2013-01-19 20:14:00,47.1,25.2,30.00,NE,47,8.3,8.3,42,0.00,,,0.00,WeatherDisplay:10.36,2013-01-20 02:14:00,
2013-01-19 20:19:00,47.3,24.8,30.03,NE,47,6.3,6.3,41,0.00,,,0.00,WeatherDisplay:10.36,2013-01-20 02:19:00,
2013-01-19 20:24:00,47.3,24.2,30.03,NE,49,4.0,4.0,40,0.00,,,0.00,WeatherDisplay:10.36,2013-01-20 02:24:00,
2013-01-19 20:29:00,47.3,24.2,30.03,NE,46,5.4,5.4,40,0.00,,,0.00,WeatherDisplay:10.36,2013-01-20 02:29:00,
2013-01-19 20:34:00,47.3,24.2,30.03,NE,50,4.6,4.6,40,0.00,,,0.00,WeatherDisplay:10.36,2013-01-20 02:34:00,
2013-01-19 20:40:00,47.1,24.0,30.03,NE,47,4.6,4.6,40,0.00,,,0.00,WeatherDisplay:10.36,2013-01-20 02:40:00,
2013-01-19 20:46:00,47.1,24.0,30.03,NE,47,3.5,3.5,40,0.00,,,0.00,WeatherDisplay:10.36,2013-01-20 02:46:00,
2013-01-19 20:51:00,46.9,23.8,30.03,NE,53,4.9,4.9,40,0.00,,,0.00,WeatherDisplay:10.36,2013-01-20 02:51:00,
2013-01-19 20:56:00,46.6,23.5,30.03,NE,47,6.3,6.3,40,0.00,,,0.00,WeatherDisplay:10.36,2013-01-20 02:56:00,
2013-01-19 21:02:00,46.4,23.4,30.03,WSW,254,5.8,5.8,40,0.00,,,0.00,WeatherDisplay:10.36,2013-01-20 03:02:00,
2013-01-19 21:08:00,46.2,23.2,30.03,NE,46,4.9,4.9,40,0.00,,,0.00,WeatherDisplay:10.36,2013-01-20 03:08:00,
2013-01-19 21:14:00,46.0,23.6,30.03,NE,49,4.5,4.5,41,0.00,,,0.00,WeatherDisplay:10.36,2013-01-20 03:14:00,
2013-01-19 21:19:00,46.0,23.6,30.06,NE,47,4.5,4.5,41,0.00,,,0.00,WeatherDisplay:10.36,2013-01-20 03:19:00,
2013-01-19 21:24:00,45.9,23.5,30.06,NE,52,3.1,3.1,41,0.00,,,0.00,WeatherDisplay:10.36,2013-01-20 03:24:00,
2013-01-19 21:30:00,45.3,23.5,30.06,NE,46,4.5,4.5,42,0.00,,,0.00,WeatherDisplay:10.36,2013-01-20 03:30:00,
2013-01-19 21:36:00,45.1,23.4,30.06,ENE,60,3.6,3.6,42,0.00,,,0.00,WeatherDisplay:10.36,2013-01-20 03:36:00,
2013-01-19 21:42:00,45.0,23.2,30.06,NE,50,4.5,4.5,42,0.00,,,0.00,WeatherDisplay:10.36,2013-01-20 03:42:00,
2013-01-19 21:48:00,44.6,23.5,30.06,NE,48,3.6,4.9,43,0.00,,,0.00,WeatherDisplay:10.36,2013-01-20 03:48:00,
2013-01-19 21:53:00,44.4,23.3,30.06,NE,55,5.4,5.4,43,0.00,,,0.00,WeatherDisplay:10.36,2013-01-20 03:53:00,
2013-01-19 21:58:00,44.2,23.7,30.06,NE,46,4.9,5.8,44,0.00,,,0.00,WeatherDisplay:10.36,2013-01-20 03:58:00,
2013-01-19 22:03:00,44.2,23.7,30.06,NE,46,5.8,5.8,44,0.00,,,0.00,WeatherDisplay:10.36,2013-01-20 04:03:00,
2013-01-19 22:09:00,44.4,23.8,30.06,NE,48,4.9,4.9,44,0.00,,,0.00,WeatherDisplay:10.36,2013-01-20 04:09:00,
2013-01-19 22:14:00,44.2,23.7,30.06,NE,50,4.9,5.8,44,0.00,,,0.00,WeatherDisplay:10.36,2013-01-20 04:14:00,
2013-01-19 22:20:00,44.2,23.7,30.06,NE,48,9.6,9.6,44,0.00,,,0.00,WeatherDisplay:10.36,2013-01-20 04:20:00,
2013-01-19 22:25:00,44.2,23.7,30.06,NE,47,8.7,8.7,44,0.00,,,0.00,WeatherDisplay:10.36,2013-01-20 04:25:00,
2013-01-19 22:30:00,44.1,23.5,30.06,NE,46,7.4,7.4,44,0.00,,,0.00,WeatherDisplay:10.36,2013-01-20 04:30:00,
2013-01-19 22:35:00,43.9,23.4,30.08,NE,49,9.2,9.2,44,0.00,,,0.00,WeatherDisplay:10.36,2013-01-20 04:35:00,
2013-01-19 22:41:00,43.9,23.4,30.08,NE,47,9.2,9.2,44,0.00,,,0.00,WeatherDisplay:10.36,2013-01-20 04:41:00,
2013-01-19 22:46:00,43.5,23.0,30.08,ENE,69,6.3,6.3,44,0.00,,,0.00,WeatherDisplay:10.36,2013-01-20 04:46:00,
2013-01-19 22:51:00,43.3,22.9,30.08,NE,47,3.6,3.6,44,0.00,,,0.00,WeatherDisplay:10.36,2013-01-20 04:51:00,
2013-01-19 22:56:00,43.2,22.7,30.08,NE,47,8.1,8.1,44,0.00,,,0.00,WeatherDisplay:10.36,2013-01-20 04:56:00,
2013-01-19 23:00:00,43.0,23.1,30.08,NE,46,6.9,6.9,45,0.00,,,0.00,WeatherDisplay:10.36,2013-01-20 05:00:00,
2013-01-19 23:03:00,43.0,22.5,30.08,NE,48,3.1,4.5,44,0.00,,,0.00,WeatherDisplay:10.36,2013-01-20 05:03:00,
2013-01-19 23:04:00,43.0,22.5,30.08,NE,48,3.1,4.5,44,0.00,,,0.00,WeatherDisplay:10.36,2013-01-20 05:04:00,
2013-01-19 23:05:00,42.8,22.4,30.08,NE,45,5.8,5.8,44,0.00,,,0.00,WeatherDisplay:10.36,2013-01-20 05:05:00,
2013-01-19 23:10:00,42.6,22.2,30.08,NE,48,6.3,6.3,44,0.00,,,0.00,WeatherDisplay:10.36,2013-01-20 05:10:00,
2013-01-19 23:15:00,42.4,22.0,30.08,NE,46,4.9,4.9,44,0.00,,,0.00,WeatherDisplay:10.36,2013-01-20 05:15:00,
2013-01-19 23:20:00,42.3,21.9,30.11,NE,48,5.8,5.8,44,0.00,,,0.00,WeatherDisplay:10.36,2013-01-20 05:20:00,
2013-01-19 23:25:00,42.1,21.7,30.11,NE,50,11.5,11.5,44,0.00,,,0.00,WeatherDisplay:10.36,2013-01-20 05:25:00,
2013-01-19 23:30:00,42.1,21.7,30.11,NE,48,13.0,13.0,44,0.00,,,0.00,WeatherDisplay:10.36,2013-01-20 05:30:00,
2013-01-19 23:35:00,42.1,21.2,30.11,NE,45,8.1,8.1,43,0.00,,,0.00,WeatherDisplay:10.36,2013-01-20 05:35:00,
2013-01-19 23:40:00,41.9,21.0,30.11,NE,47,9.2,9.2,43,0.00,,,0.00,WeatherDisplay:10.36,2013-01-20 05:40:00,
2013-01-19 23:45:00,41.7,19.7,30.11,NE,46,11.6,11.6,41,0.00,,,0.00,WeatherDisplay:10.36,2013-01-20 05:45:00,
2013-01-19 23:50:00,41.5,18.4,30.11,NE,48,8.1,8.1,39,0.00,,,0.00,WeatherDisplay:10.36,2013-01-20 05:50:00,
2013-01-19 23:55:00,41.2,16.8,30.11,NE,47,11.5,11.5,37,0.00,,,0.00,WeatherDisplay:10.36,2013-01-20 05:55:00,